TimeEDT,TemperatureF,Dew PointF,Humidity,Sea Level PressureIn,VisibilityMPH,Wind Direction,Wind SpeedMPH,Gust SpeedMPH,PrecipitationIn,Events,Conditions,WindDirDegrees,DateUTC
12:53 AM,63.0,61.0,93,30.02,7.0,Calm,Calm,-,N/A,,Clear,0,2013-08-20 04:53:00
1:53 AM,62.1,60.1,93,30.02,8.0,Calm,Calm,-,N/A,,Clear,0,2013-08-20 05:53:00
2:53 AM,60.1,59.0,96,30.02,9.0,Calm,Calm,-,N/A,,Clear,0,2013-08-20 06:53:00
3:27 AM,59.0,57.2,94,30.02,2.5,Calm,Calm,-,N/A,,Clear,0,2013-08-20 07:27:00
3:40 AM,57.2,57.2,100,30.02,4.0,Calm,Calm,-,N/A,,Clear,0,2013-08-20 07:40:00
3:53 AM,57.9,57.0,97,30.03,3.0,South,3.5,-,N/A,,Clear,170,2013-08-20 07:53:00
4:53 AM,59.0,57.9,96,30.04,5.0,Calm,Calm,-,N/A,,Clear,0,2013-08-20 08:53:00
5:53 AM,57.0,55.9,96,30.05,2.5,Calm,Calm,-,N/A,,Clear,0,2013-08-20 09:53:00
6:29 AM,57.2,55.4,94,30.07,3.0,Calm,Calm,-,N/A,,Clear,0,2013-08-20 10:29:00
6:38 AM,57.2,55.4,94,30.07,2.5,Calm,Calm,-,N/A,,Clear,0,2013-08-20 10:38:00
6:45 AM,57.2,55.4,94,30.07,5.0,Calm,Calm,-,N/A,,Clear,0,2013-08-20 10:45:00
6:53 AM,59.0,57.0,93,30.07,6.0,Calm,Calm,-,N/A,,Clear,0,2013-08-20 10:53:00
7:53 AM,64.0,60.1,87,30.09,10.0,Calm,Calm,-,N/A,,Clear,0,2013-08-20 11:53:00
8:53 AM,70.0,60.1,71,30.09,10.0,Calm,Calm,-,N/A,,Clear,0,2013-08-20 12:53:00
9:53 AM,77.0,59.0,54,30.10,10.0,WNW,8.1,-,N/A,,Clear,300,2013-08-20 13:53:00
10:53 AM,80.1,60.1,50,30.10,10.0,WNW,11.5,-,N/A,,Clear,300,2013-08-20 14:53:00
11:53 AM,82.0,59.0,45,30.09,10.0,WNW,11.5,18.4,N/A,,Clear,290,2013-08-20 15:53:00
12:53 PM,84.0,60.1,44,30.08,10.0,West,9.2,17.3,N/A,,Clear,260,2013-08-20 16:53:00
1:53 PM,84.9,59.0,41,30.08,10.0,Variable,4.6,-,N/A,,Mostly Cloudy,0,2013-08-20 17:53:00
2:53 PM,84.0,57.9,41,30.06,10.0,West,8.1,-,N/A,,Clear,270,2013-08-20 18:53:00
3:53 PM,84.9,57.9,40,30.06,10.0,West,9.2,-,N/A,,Partly Cloudy,280,2013-08-20 19:53:00
4:53 PM,84.0,57.9,41,30.06,10.0,WNW,10.4,-,N/A,,Scattered Clouds,290,2013-08-20 20:53:00
5:53 PM,82.9,57.9,42,30.07,10.0,WNW,5.8,-,N/A,,Clear,290,2013-08-20 21:53:00
6:53 PM,80.1,61.0,52,30.07,10.0,WNW,4.6,-,N/A,,Clear,300,2013-08-20 22:53:00
7:53 PM,71.1,64.0,78,30.09,10.0,Calm,Calm,-,N/A,,Clear,0,2013-08-20 23:53:00
8:53 PM,68.0,64.9,90,30.10,9.0,Calm,Calm,-,N/A,,Clear,0,2013-08-21 00:53:00
9:53 PM,66.0,64.0,93,30.11,6.0,Calm,Calm,-,N/A,,Clear,0,2013-08-21 01:53:00
10:53 PM,64.0,63.0,96,30.12,3.0,Calm,Calm,-,N/A,,Clear,0,2013-08-21 02:53:00
11:17 PM,62.6,62.6,100,30.12,1.8,Calm,Calm,-,N/A,,Partly Cloudy,0,2013-08-21 03:17:00
11:28 PM,64.4,62.6,94,30.12,3.0,Calm,Calm,-,N/A,,Partly Cloudy,0,2013-08-21 03:28:00
11:53 PM,64.0,62.1,93,30.12,4.0,Calm,Calm,-,N/A,,Clear,0,2013-08-21 03:53:00